Temp
-3 -3 -2 -2 -2 -2 -2 -2 -2 -2 -2 -2 -2 -2 -0 0 1 2 4 5 5 6 6 7 7 6 5 5 5 5 5 6 6 7 7 8 9 8 9 10 9 8 9 9 7 8 8 9 11 13 10 9 7 7
-2 -2 -3 -2 -2 -2 -2 -2 -2 -2 -2 -2 -2 -1 -0 0 1 2 4 5 5 5 6 7 7 7 6 6 6 5 5 6 7 8 7 8 8 7 6 7 7 8 9 8 7 8 8 10 10 10 10 9 7 6
-2 -3 -2 -2 -2 -2 -2 -2 -1 -2 -2 -2 -2 -1 -1 -0 0 1 3 5 5 5 6 6 6 7 6 6 5 5 5 6 7 7 7 7 8 5 6 6 7 7 7 8 9 9 9 10 10 10 10 9 8 7
-2 -2 -2 -2 -2 -2 -2 -1 -2 -2 -2 -1 -2 -2 -1 -0 -0 2 4 5 5 5 5 6 6 6 6 6 5 5 5 5 6 7 7 7 7 6 7 7 7 7 7 8 7 8 9 10 10 10 9 9 8 6
-2 -2 -1 -1 -2 -1 -1 -2 -2 -2 -1 -1 -2 -1 -1 -0 0 3 4 5 5 5 6 6 5 5 5 5 5 5 4 5 6 6 7 8 7 7 5 5 6 6 7 8 9 10 10 10 10 10 10 8 8 8
-2 -1 -2 -2 -2 -2 -2 -2 -2 -2 -1 -1 -2 -1 -1 -1 1 3 5 4 5 5 5 5 5 5 5 5 5 5 5 5 6 6 7 7 8 8 6 6 8 10 10 11 10 11 10 10 9 9 9 8 8 8
-2 -1 -1 -2 -2 -2 -2 -3 -2 -2 -3 -2 -3 -2 -1 0 1 2 4 4 5 5 5 4 4 5 5 5 5 5 5 5 5 6 6 6 7 7 7 7 9 9 10 10 10 10 6 7 7 8 9 7 7 7
-1 -1 -1 -1 -2 -2 -3 -3 -3 -3 -3 -3 -2 -0 1 2 2 3 5 5 5 5 6 3 4 5 5 5 5 5 6 5 6 6 6 6 6 5 6 7 8 8 8 8 8 10 10 9 8 7 7 7 7 7
-0 -0 -1 -1 -2 -2 -2 -4 -4 -3 -3 -1 -0 1 2 2 3 4 5 5 5 5 4 3 4 4 5 5 5 5 5 6 6 5 5 5 6 6 8 8 7 8 8 7 8 8 8 8 7 6 7 7 7 6
-0 -0 -1 -1 -1 -2 -2 -4 -4 -3 -2 0 1 1 3 3 4 5 4 5 5 5 5 4 5 4 5 5 4 5 4 4 5 5 4 4 4 7 9 9 9 9 9 8 6 4 5 5 6 5 6 7 7 6
-0 -0 -1 -1 -1 -2 -2 -4 -4 -3 -2 -1 -1 -0 1 3 4 4 4 4 4 3 4 4 5 4 5 5 5 3 3 2 5 3 5 5 4 3 6 9 9 8 9 9 10 10 8 9 7 6 6 6 6 6
-0 -0 -1 -1 -1 -1 -2 -3 -4 -3 -3 -2 -3 -1 1 2 3 3 3 2 3 5 3 4 4 5 4 5 4 3 3 2 5 1 4 4 3 4 5 6 8 8 8 8 8 9 8 7 7 6 6 5 5 5
-0 -0 -0 -1 -1 -1 -1 -1 -4 -3 -3 -2 -2 -1 -1 0 2 4 4 4 3 2 3 3 2 4 4 4 2 1 5 5 1 2 3 2 2 4 5 5 6 6 6 7 7 7 7 6 6 6 6 5 5 4
-0 -0 -0 -1 -1 -1 -1 -1 -0 -3 -3 -2 -1 0 0 2 2 2 2 3 3 3 3 5 2 3 3 2 2 4 1 0 0 1 2 -1 3 4 4 4 4 4 5 6 6 6 5 5 5 5 5 5 4 3
-0 -0 -0 -1 -1 -1 -1 -0 -1 -2 -3 -2 -1 0 1 0 -0 0 -0 0 1 2 4 4 3 4 1 1 0 0 1 1 2 3 -1 3 3 3 3 3 3 4 4 4 4 4 4 5 5 4 4 3 3 3
-1 -0 -1 -1 -0 -0 -0 -0 -2 -2 -2 -2 -2 -1 -0 -0 -0 -0 0 0 1 2 5 5 1 2 3 1 -3 -1 0 2 3 -2 3 4 3 3 3 3 3 3 3 3 3 4 4 4 4 4 2 2 2 2
-1 -1 -1 -1 -1 -1 -0 -2 -3 -2 -3 -2 -1 -1 -1 -1 -1 -1 -0 1 2 2 2 1 3 3 -3 -5 -2 -3 -0 2 -0 2 3 3 3 3 2 2 2 2 2 2 3 3 3 3 3 3 2 0 1 0
-1 -1 -1 -1 -1 -1 -2 -3 -3 -3 -3 -2 -3 -2 -2 -2 -1 -1 0 1 1 2 1 2 -1 -3 -1 -1 -2 -2 -1 -1 1 2 2 2 2 2 2 2 2 2 2 2 3 3 3 3 3 1 1 0 -0 -1
-2 -2 -1 -1 -1 -2 -4 -4 -4 -4 -4 -3 -3 -3 -3 -2 -1 -1 -0 1 1 2 2 0 -2 -2 -1 -3 -3 -1 -0 1 1 0 1 1 2 2 1 1 2 2 2 3 3 3 2 2 3 2 1 0 0 -1
-1 -1 -1 -1 -1 -2 -3 -3 -4 -4 -6 -3 -3 -3 -3 -3 -1 -1 -1 0 0 1 1 1 -1 -1 -0 1 2 1 2 2 2 0 -1 -0 0 1 1 1 1 2 2 2 2 2 1 1 1 1 0 -0 -1 -2
-2 -1 -1 -1 -2 -3 -3 -3 -3 -4 -5 -5 -3 -3 -3 -2 -2 -1 -1 -0 -0 -0 -1 -3 -2 -1 -1 0 1 2 2 1 2 2 1 -1 -1 0 1 1 2 2 2 2 2 0 1 1 -0 -1 -1 -1 -2 -3
-2 -2 -2 -2 -3 -3 -3 -4 -4 -4 -5 -5 -4 -4 -4 -4 -2 -3 -3 -2 -5 -6 -6 -5 -4 -3 -1 0 1 1 1 1 1 1 1 0 -1 -1 -0 0 1 1 1 2 2 2 0 -0 -1 -1 -2 -3 -4 -4
-3 -3 -3 -3 -3 -3 -4 -4 -4 -5 -9 -9 -5 -9 -7 -5 -4 -4 -5 -7 -8 -9 -8 -7 -5 -4 -3 -2 -1 -1 -1 0 1 0 0 0 -0 -0 0 0 1 2 2 1 1 0 -0 -1 -2 -2 -3 -3 -4 -4
-3 -3 -4 -4 -5 -10 -5 -5 -6 -7 -6 -9 -13 -10 -8 -6 -4 -5 -6 -8 -10 -9 -8 -7 -6 -5 -4 -3 -2 -2 -2 -2 -1 -1 -1 1 -0 -2 -0 1 1 1 2 1 -0 -1 -1 -2 -3 -3 -3 -3 -4 -4
-4 -5 -5 -11 -7 -11 -15 -14 -16 -12 -11 -13 -11 -12 -8 -5 -5 -6 -8 -10 -10 -10 -10 -8 -7 -7 -7 -5 -4 -4 -3 -2 -2 -2 -3 -2 -0 -2 -2 -1 -0 -0 0 0 -1 -2 -2 -3 -3 -4 -4 -4 -5 -5
-9 -6 -10 -14 -13 -11 -12 -11 -13 -13 -13 -13 -11 -8 -7 -8 -8 -7 -10 -12 -12 -12 -12 -11 -10 -8 -7 -7 -6 -5 -4 -4 -4 -3 -3 -3 -2 -1 -1 -1 -1 -2 -1 -1 -0 -1 -2 -3 -4 -5 -5 -6 -6 -6
-10 -12 -7 -8 -7 -8 -10 -10 -9 -12 -13 -13 -14 -13 -11 -10 -9 -10 -11 -12 -12 -12 -12 -11 -11 -10 -8 -7 -7 -6 -6 -5 -5 -4 -4 -4 -3 -3 -2 -1 -1 -0 -1 -2 -2 -2 -2 -4 -5 -5 -5 -6 -7 -7
-7 -8 -10 -9 -9 -9 -14 -15 -15 -14 -14 -10 -11 -13 -12 -9 -9 -11 -11 -12 -12 -12 -11 -11 -11 -10 -9 -8 -7 -7 -7 -6 -6 -5 -5 -4 -3 -3 -2 -2 -2 -1 -2 -3 -4 -4 -4 -4 -5 -5 -6 -6 -6 -7
-8 -8 -8 -15 -12 -12 -13 -13 -14 -10 -10 -10 -14 -13 -13 -11 -11 -11 -12 -12 -12 -12 -12 -11 -11 -11 -10 -9 -8 -8 -7 -7 -6 -6 -5 -6 -6 -5 -4 -3 -3 -4 -5 -5 -5 -5 -5 -6 -6 -6 -7 -7 -8 -8
-9 -9 -11 -17 -15 -13 -11 -10 -11 -11 -11 -11 -11 -11 -11 -11 -11 -12 -12 -12 -12 -12 -11 -11 -11 -11 -10 -10 -9 -9 -8 -8 -7 -5 -5 -5 -4 -4 -4 -4 -4 -5 -6 -6 -7 -7 -7 -7 -7 -7 -8 -8 -8 -8
-10 -9 -11 -13 -16 -12 -12 -12 -12 -11 -11 -12 -12 -12 -11 -11 -11 -11 -12 -11 -11 -11 -11 -11 -11 -10 -10 -10 -9 -8 -8 -7 -6 -5 -4 -3 -4 -5 -5 -5 -5 -6 -6 -6 -6 -6 -7 -7 -8 -8 -9 -9 -9 -9
-10 -10 -14 -15 -15 -13 -13 -12 -12 -11 -12 -12 -11 -12 -12 -12 -11 -11 -11 -11 -11 -11 -11 -11 -10 -10 -9 -9 -8 -8 -7 -6 -6 -5 -5 -5 -5 -6 -6 -7 -7 -7 -7 -7 -7 -7 -8 -8 -9 -9 -9 -9 -9 -9
-12 -12 -13 -14 -15 -15 -13 -12 -13 -13 -13 -12 -12 -13 -12 -12 -12 -11 -11 -11 -11 -11 -10 -10 -10 -9 -9 -8 -8 -8 -7 -7 -7 -7 -7 -7 -7 -7 -8 -8 -8 -8 -8 -8 -8 -9 -9 -10 -10 -10 -10 -10 -10 -10
Height
1438 1433 1429 1423 1418 1413 1409 1404 1401 1397 1393 1389 1385 1382 1378 1374 1371 1370 1369 1371 1373 1375 1375 1376 1377 1378 1380 1382 1383 1384 1384 1382 1386 1385 1387 1385 1382 1382 1379 1373 1378 1380 1379 1380 1388 1385 1383 1358 1353 1355 1361 1355 1354 1354
1435 1430 1425 1420 1414 1410 1406 1402 1398 1395 1392 1388 1384 1381 1378 1375 1372 1370 1370 1370 1374 1375 1375 1375 1376 1376 1377 1377 1378 1380 1380 1377 1377 1379 1381 1380 1378 1382 1384 1385 1378 1381 1374 1377 1379 1375 1363 1361 1360 1359 1358 1357 1355 1354
1431 1426 1421 1416 1410 1406 1402 1398 1395 1392 1388 1386 1382 1379 1376 1373 1370 1370 1367 1370 1374 1373 1375 1374 1372 1373 1373 1373 1374 1377 1377 1376 1374 1374 1375 1376 1377 1381 1384 1382 1377 1373 1370 1374 1372 1365 1362 1361 1360 1360 1359 1359 1358 1359
1427 1423 1418 1412 1407 1402 1398 1395 1391 1388 1385 1381 1378 1376 1374 1371 1368 1366 1366 1369 1372 1373 1373 1371 1369 1369 1370 1370 1370 1372 1373 1374 1374 1374 1374 1374 1377 1374 1374 1372 1373 1370 1369 1370 1370 1363 1362 1360 1360 1360 1361 1362 1362 1365
1424 1420 1414 1409 1403 1399 1395 1392 1388 1384 1381 1376 1374 1371 1370 1367 1364 1364 1365 1368 1371 1373 1370 1369 1368 1369 1369 1369 1369 1370 1371 1373 1372 1370 1371 1371 1370 1372 1372 1372 1370 1362 1362 1365 1364 1356 1357 1358 1360 1363 1363 1365 1367 1369
1421 1417 1411 1406 1401 1396 1392 1389 1385 1381 1377 1373 1371 1369 1366 1365 1363 1363 1366 1365 1368 1370 1371 1369 1369 1368 1368 1368 1368 1368 1369 1370 1370 1367 1367 1368 1367 1369 1373 1371 1354 1352 1352 1353 1355 1355 1357 1359 1362 1365 1367 1369 1372 1375
1418 1413 1408 1404 1399 1394 1390 1386 1381 1377 1373 1370 1366 1363 1361 1361 1360 1361 1361 1362 1365 1370 1370 1369 1369 1368 1368 1368 1368 1368 1368 1368 1368 1367 1367 1367 1367 1367 1367 1366 1352 1350 1351 1353 1354 1356 1361 1362 1364 1368 1370 1373 1377 1381
1415 1411 1406 1401 1396 1391 1386 1382 1378 1374 1368 1363 1358 1355 1355 1356 1358 1359 1359 1360 1363 1368 1369 1369 1369 1369 1368 1368 1369 1368 1368 1367 1366 1366 1366 1366 1368 1367 1365 1351 1351 1351 1352 1353 1354 1356 1358 1361 1365 1370 1374 1377 1380 1385
1412 1408 1404 1399 1394 1389 1384 1379 1375 1368 1362 1355 1351 1349 1352 1356 1357 1357 1359 1361 1364 1369 1366 1367 1369 1370 1368 1367 1368 1369 1368 1367 1368 1367 1367 1369 1365 1364 1347 1345 1347 1348 1350 1352 1355 1356 1359 1362 1366 1371 1375 1380 1382 1388
1409 1405 1401 1397 1391 1386 1382 1377 1371 1365 1357 1352 1352 1351 1351 1353 1355 1358 1361 1362 1365 1363 1364 1364 1365 1368 1369 1368 1369 1370 1370 1370 1369 1368 1368 1367 1359 1344 1342 1343 1344 1346 1349 1351 1354 1360 1362 1364 1368 1373 1378 1382 1386 1390
1406 1402 1398 1394 1389 1384 1379 1375 1370 1363 1357 1354 1352 1351 1350 1352 1353 1358 1357 1360 1361 1362 1360 1360 1361 1366 1368 1369 1368 1370 1372 1373 1370 1372 1367 1363 1355 1339 1337 1340 1343 1345 1349 1352 1354 1356 1359 1360 1364 1372 1379 1385 1389 1393
1402 1399 1395 1391 1387 1382 1376 1372 1368 1364 1361 1360 1358 1355 1353 1353 1353 1357 1356 1357 1357 1355 1355 1356 1359 1361 1366 1367 1368 1371 1373 1375 1369 1371 1369 1361 1342 1336 1337 1338 1341 1344 1348 1351 1354 1356 1360 1364 1370 1375 1381 1386 1391 1396
1399 1396 1393 1388 1384 1379 1374 1369 1364 1361 1358 1356 1357 1356 1355 1354 1352 1349 1347 1348 1351 1349 1350 1352 1358 1360 1364 1366 1369 1372 1368 1370 1373 1374 1364 1348 1337 1336 1337 1338 1340 1343 1347 1351 1353 1357 1361 1367 1374 1379 1383 1389 1393 1398
1396 1393 1390 1385 1381 1376 1371 1365 1360 1358 1356 1356 1356 1355 1354 1348 1346 1344 1344 1343 1342 1343 1345 1350 1355 1358 1362 1366 1369 1370 1376 1377 1379 1375 1356 1342 1335 1336 1338 1339 1340 1343 1347 1350 1354 1358 1363 1368 1374 1381 1386 1391 1395 1400
1392 1389 1387 1383 1378 1373 1367 1362 1358 1356 1356 1357 1356 1352 1348 1347 1347 1346 1345 1345 1343 1344 1346 1350 1355 1357 1362 1367 1371 1375 1377 1376 1366 1350 1343 1334 1334 1337 1339 1341 1344 1346 1349 1352 1356 1360 1365 1371 1376 1382 1389 1394 1399 1403
1388 1386 1383 1379 1375 1369 1363 1358 1356 1356 1356 1356 1354 1352 1349 1348 1346 1346 1345 1345 1345 1346 1349 1348 1353 1358 1358 1361 1375 1371 1371 1362 1342 1339 1333 1333 1335 1337 1340 1343 1346 1349 1352 1355 1360 1364 1369 1375 1381 1386 1392 1398 1403 1406
1385 1383 1380 1375 1371 1365 1360 1356 1356 1356 1357 1355 1352 1351 1351 1349 1347 1344 1345 1343 1344 1345 1343 1345 1349 1349 1361 1371 1367 1360 1354 1336 1333 1332 1332 1334 1337 1339 1341 1345 1349 1352 1355 1358 1363 1369 1375 1381 1385 1390 1395 1401 1405 1409
1382 1380 1377 1373 1368 1362 1357 1357 1356 1356 1356 1354 1354 1352 1350 1349 1347 1345 1342 1342 1343 1342 1341 1341 1342 1352 1352 1353 1353 1336 1331 1332 1332 1332 1334 1336 1338 1341 1343 1346 1349 1354 1357 1362 1368 1373 1378 1383 1388 1393 1398 1402 1406 1411
1378 1376 1373 1370 1366 1362 1359 1360 1359 1357 1354 1353 1351 1350 1348 1345 1342 1340 1339 1339 1339 1339 1339 1339 1342 1342 1337 1331 1328 1328 1329 1330 1331 1334 1336 1339 1341 1343 1346 1349 1352 1356 1361 1367 1371 1376 1381 1387 1391 1395 1399 1403 1407 1412
1375 1373 1371 1368 1365 1361 1360 1360 1359 1357 1355 1351 1349 1346 1344 1340 1337 1336 1335 1335 1336 1336 1336 1334 1331 1329 1329 1329 1328 1328 1328 1329 1330 1333 1337 1340 1343 1345 1348 1351 1354 1359 1364 1370 1376 1381 1385 1390 1395 1399 1402 1406 1410 1414
1370 1369 1367 1365 1362 1361 1360 1359 1358 1357 1354 1351 1348 1345 1340 1336 1334 1333 1332 1331 1332 1330 1329 1330 1329 1328 1328 1328 1327 1327 1327 1329 1329 1331 1333 1337 1342 1346 1349 1353 1357 1361 1366 1372 1377 1383 1387 1391 1395 1400 1404 1409 1413 1416
1367 1365 1363 1361 1360 1360 1359 1359 1358 1357 1355 1350 1349 1346 1342 1337 1334 1333 1332 1329 1330 1332 1332 1331 1329 1327 1327 1326 1326 1326 1327 1329 1330 1332 1335 1338 1340 1344 1349 1353 1357 1362 1368 1373 1378 1382 1388 1393 1398 1403 1407 1410 1414 1417
1365 1363 1360 1360 1360 1358 1360 1358 1357 1355 1355 1351 1348 1347 1342 1339 1336 1334 1333 1334 1335 1335 1333 1331 1329 1327 1327 1327 1327 1328 1328 1330 1331 1332 1335 1339 1343 1347 1349 1354 1359 1363 1368 1375 1381 1385 1390 1395 1399 1403 1407 1411 1414 1417
1361 1360 1359 1358 1358 1358 1357 1356 1356 1356 1353 1353 1355 1353 1345 1340 1337 1335 1335 1336 1337 1334 1333 1331 1328 1326 1327 1327 1328 1330 1330 1331 1332 1334 1336 1337 1341 1346 1351 1355 1361 1366 1371 1376 1382 1386 1391 1395 1399 1403 1407 1411 1415 1418
1361 1359 1359 1358 1357 1359 1362 1360 1360 1359 1362 1358 1357 1353 1345 1342 1339 1338 1339 1340 1337 1335 1333 1332 1330 1327 1328 1328 1329 1330 1330 1331 1333 1334 1336 1337 1340 1345 1352 1357 1364 1369 1374 1377 1382 1387 1391 1396 1400 1405 1408 1412 1415 1418
1361 1355 1357 1355 1357 1359 1360 1362 1363 1363 1361 1361 1355 1349 1346 1344 1343 1339 1342 1341 1338 1335 1334 1331 1328 1328 1329 1329 1328 1329 1330 1330 1333 1334 1335 1338 1341 1344 1348 1353 1361 1369 1374 1380 1383 1387 1392 1397 1401 1405 1409 1413 1416 1418
1358 1354 1352 1353 1354 1354 1356 1356 1357 1359 1362 1362 1358 1355 1353 1352 1346 1344 1342 1340 1339 1337 1333 1331 1329 1328 1327 1327 1327 1329 1329 1329 1331 1333 1335 1338 1342 1348 1354 1358 1363 1368 1373 1380 1386 1390 1392 1396 1401 1405 1409 1413 1416 1418
1348 1349 1353 1352 1352 1353 1355 1357 1359 1359 1356 1354 1355 1358 1356 1349 1346 1343 1341 1339 1336 1334 1332 1330 1328 1326 1324 1324 1326 1327 1328 1329 1330 1333 1337 1341 1345 1350 1355 1361 1366 1370 1376 1382 1386 1390 1395 1399 1402 1406 1409 1412 1415 1418
1345 1345 1348 1351 1351 1351 1350 1352 1351 1350 1351 1352 1354 1353 1349 1346 1344 1342 1340 1338 1336 1334 1331 1328 1326 1325 1324 1324 1326 1327 1328 1329 1330 1332 1335 1339 1345 1350 1356 1362 1367 1372 1376 1381 1387 1393 1397 1400 1404 1407 1410 1413 1415 1418
1342 1344 1346 1348 1349 1349 1346 1348 1348 1348 1349 1350 1350 1349 1347 1344 1342 1341 1339 1337 1335 1333 1331 1330 1329 1327 1326 1327 1327 1328 1330 1332 1335 1337 1338 1342 1346 1353 1358 1363 1368 1373 1378 1383 1387 1390 1395 1399 1403 1407 1410 1413 1415 1417
1339 1341 1343 1344 1345 1345 1345 1346 1347 1347 1348 1348 1348 1347 1345 1343 1341 1339 1337 1335 1334 1333 1331 1330 1329 1329 1330 1330 1330 1331 1333 1336 1339 1341 1343 1347 1351 1356 1361 1365 1370 1376 1381 1385 1389 1393 1397 1402 1406 1409 1411 1412 1414 1415
1338 1339 1340 1345 1345 1345 1346 1346 1346 1347 1346 1346 1345 1345 1344 1343 1341 1339 1338 1336 1335 1334 1334 1333 1333 1333 1334 1334 1334 1335 1337 1338 1341 1344 1348 1352 1356 1361 1366 1371 1376 1380 1384 1388 1391 1395 1400 1404 1407 1409 1411 1412 1413 1414
1337 1339 1340 1342 1344 1344 1345 1345 1345 1345 1345 1343 1343 1342 1342 1342 1340 1339 1339 1338 1338 1338 1337 1337 1337 1337 1338 1338 1339 1340 1342 1344 1347 1351 1355 1359 1362 1366 1371 1375 1380 1384 1387 1391 1394 1398 1401 1404 1407 1409 1410 1411 1411 1411
Wind_Speed
27 28 29 30 28 26 26 24 22 23 21 22 20 20 22 23 16 16 7 12 4 2 5 9 6 7 5 6 3 2 3 4 4 4 4 3 4 4 2 2 3 4 4 3 2 2 4 7 7 4 2 4 4 1
27 28 29 29 28 26 24 23 20 22 20 22 19 20 20 21 15 12 4 14 16 6 1 9 12 11 13 11 6 7 3 2 6 3 3 1 2 1 2 3 2 3 4 3 6 5 3 3 1 3 4 3 4 4
28 30 30 30 28 25 21 22 21 20 19 21 18 19 18 21 15 9 7 11 14 2 6 11 10 11 14 15 14 5 4 5 3 3 3 1 3 4 4 5 4 3 3 2 2 2 3 2 1 4 3 7 9 15
28 28 28 28 25 24 20 20 20 19 20 21 18 17 18 21 19 7 2 11 9 3 2 3 5 5 8 10 10 12 16 8 8 6 2 2 2 4 3 2 3 4 4 4 4 5 3 4 3 3 10 13 16 18
26 26 26 27 24 21 20 20 19 20 22 20 18 16 20 21 15 6 14 12 13 5 1 2 3 3 3 5 7 9 14 11 4 3 2 3 1 2 1 1 3 5 6 4 5 4 1 1 10 10 14 16 17 22
24 24 25 23 23 20 20 20 20 22 21 19 20 17 19 19 10 2 6 14 13 14 4 2 1 1 3 4 6 6 5 4 4 3 1 2 2 2 1 3 5 12 9 7 1 2 4 9 15 14 17 18 19 23
21 23 23 22 21 20 20 21 22 22 22 23 24 22 19 15 10 7 4 5 15 12 2 1 1 1 1 1 1 2 1 1 2 2 2 1 2 4 1 3 4 5 8 7 7 12 11 16 10 16 20 22 24 25
20 22 23 23 22 22 22 23 23 24 27 28 24 21 13 8 11 10 6 5 18 10 3 1 2 1 5 2 1 1 1 2 1 2 1 1 1 0 3 7 6 3 7 13 16 5 8 18 23 22 23 27 28 27
20 22 23 25 25 23 22 23 25 28 30 23 14 2 10 8 6 4 6 9 21 6 3 2 3 2 3 1 1 2 2 1 2 1 1 1 1 4 6 6 10 14 12 13 10 13 20 27 28 28 30 30 31 29
19 21 23 25 26 25 24 23 28 30 24 10 2 1 5 7 4 10 8 14 8 5 3 2 5 2 2 1 0 1 2 1 1 1 2 2 4 15 14 6 4 16 11 20 22 17 24 28 31 32 31 30 30 30
18 21 23 25 24 27 25 22 27 29 16 14 10 4 4 10 8 7 5 3 2 1 6 6 7 3 5 2 2 1 1 1 1 3 1 2 4 4 6 15 9 15 16 19 10 13 23 30 37 35 32 29 29 27
18 20 23 24 23 27 27 27 24 23 17 14 15 12 2 0 2 3 2 2 3 4 4 4 5 6 5 3 2 0 2 1 4 2 1 3 4 3 3 7 14 16 20 18 8 12 21 29 33 33 31 31 28 25
18 20 22 23 22 27 29 30 25 20 14 4 2 2 1 2 3 6 6 3 3 3 9 6 3 6 4 2 3 2 2 3 2 0 3 4 3 4 4 5 11 18 21 16 14 18 22 31 31 31 32 28 27 25
18 19 20 20 26 28 30 31 26 11 4 1 1 2 3 3 3 1 1 3 2 6 18 17 5 3 4 2 2 2 1 2 1 2 6 3 5 6 6 7 14 20 20 18 21 24 31 34 34 32 29 28 27 26
17 18 17 23 27 29 30 29 15 7 1 2 2 3 2 3 2 5 6 4 3 11 24 8 5 4 1 3 1 3 1 4 5 5 3 4 7 9 9 12 16 20 20 22 26 32 35 35 35 33 29 26 24 24
17 18 17 24 26 30 30 23 6 2 1 2 4 3 4 2 1 2 5 5 4 17 17 4 3 3 3 4 3 7 6 6 4 3 4 7 11 11 12 14 17 19 21 26 30 34 35 34 33 32 29 25 23 21
16 15 23 25 27 31 27 6 2 1 2 3 2 4 6 9 6 3 4 5 9 12 3 3 6 7 3 3 2 4 5 3 3 2 7 11 12 14 16 17 18 21 25 28 32 33 34 33 32 31 30 26 23 21
17 18 21 23 28 27 12 6 3 1 3 2 1 4 9 10 9 7 5 9 7 6 5 3 8 3 5 6 4 4 9 3 3 7 11 12 13 16 18 20 21 24 28 31 34 35 34 34 32 30 28 27 24 22
17 19 20 21 23 16 4 3 4 3 3 4 6 7 6 11 12 11 11 10 11 7 2 3 2 4 4 4 3 3 8 9 8 12 13 14 16 19 21 21 23 27 31 34 36 36 35 31 30 29 27 25 23 23
13 15 16 20 16 4 2 1 4 3 3 5 8 8 14 10 10 12 11 10 12 4 3 3 3 1 1 2 3 3 3 11 16 19 17 18 19 20 21 23 28 32 35 36 35 33 32 29 26 24 23 22 22 22
13 13 18 15 5 2 2 2 2 3 6 5 7 14 9 10 6 4 5 10 9 3 1 2 4 4 6 6 5 5 5 12 19 15 26 25 23 23 25 27 31 36 37 36 35 31 28 27 27 25 23 21 19 19
12 16 14 7 2 2 2 2 5 8 4 6 8 10 7 3 4 4 8 2 4 4 5 6 9 9 7 5 4 4 7 12 15 12 19 26 29 29 29 32 37 39 37 35 33 31 29 27 25 23 23 23 22 19
12 11 4 2 2 2 2 5 2 1 2 4 11 4 3 3 5 10 2 4 3 9 11 8 6 5 6 5 5 7 9 11 14 15 24 26 27 28 32 36 38 38 37 32 28 29 28 27 26 24 23 22 21 19
11 3 2 2 1 3 3 1 2 3 4 4 3 5 4 3 9 2 1 2 6 11 10 9 5 2 3 6 8 11 12 14 16 21 26 29 31 31 35 36 35 34 32 31 30 30 28 28 26 24 23 21 19 16
3 2 1 3 1 3 4 5 5 4 2 2 3 4 3 6 2 1 2 3 12 13 13 11 7 5 4 7 9 12 13 14 19 25 26 30 34 35 33 32 31 29 28 30 31 30 29 26 25 23 21 19 18 17
1 3 2 4 2 2 4 1 1 3 1 3 3 5 5 2 2 2 2 8 10 13 16 15 13 9 6 5 7 10 13 15 18 24 25 27 32 38 38 37 33 29 29 28 28 28 27 26 25 23 21 19 16 14
3 4 3 4 2 3 1 0 0 2 1 3 3 3 3 2 3 1 5 7 12 16 15 12 10 9 9 8 8 11 13 15 19 24 26 29 32 34 32 32 31 30 29 27 24 23 23 25 25 23 20 18 15 12
5 7 5 6 3 3 4 1 3 4 3 2 0 1 3 3 3 4 5 14 16 14 12 10 8 7 6 7 9 11 14 16 18 24 29 31 32 32 31 28 27 29 27 24 22 21 21 20 20 19 17 15 13 12
4 5 7 1 2 2 5 5 4 4 3 3 3 2 3 4 6 10 12 11 10 9 9 7 6 4 4 6 10 12 16 21 30 35 35 31 28 26 26 27 30 27 27 26 22 19 18 18 18 17 16 14 12 10
6 10 4 2 5 4 2 5 3 4 3 3 3 3 4 5 6 8 8 8 8 6 5 5 4 3 6 10 14 20 23 23 25 29 32 32 32 31 29 28 26 26 26 27 28 27 25 22 20 18 15 13 11 8
8 10 3 3 3 3 5 7 6 4 3 3 4 4 4 5 6 6 7 7 6 4 4 3 2 2 6 11 15 17 17 20 23 27 31 32 31 30 27 25 24 26 26 24 21 20 20 18 16 14 13 11 9 6
6 5 5 2 2 4 6 5 3 3 3 3 3 4 3 3 3 3 3 3 4 3 5 5 6 7 7 8 11 11 13 16 17 19 25 27 27 26 24 24 23 22 21 20 19 18 17 15 14 12 10 7 5 4
5 4 3 4 2 3 5 4 1 2 3 2 3 2 3 2 4 3 3 3 5 7 6 6 6 7 7 8 13 17 19 21 23 21 22 23 23 24 25 24 23 21 20 19 18 17 16 14 11 9 7 5 4 4
Wind_Direction
326 328 329 332 333 330 332 337 335 333 335 336 332 338 347 345 337 355 203 202 177 195 169 207 197 161 172 181 182 188 254 196 154 183 198 204 222 212 230 294 180 186 160 192 134 225 318 353 342 48 243 326 346 173
327 327 329 328 326 329 326 333 334 327 331 334 333 335 342 339 331 7 321 201 222 242 255 227 240 232 219 245 184 179 276 235 208 180 186 201 233 115 166 246 1 231 191 192 183 219 270 331 322 356 341 39 358 145
327 329 330 330 329 331 329 330 328 330 328 330 334 331 336 333 327 334 331 190 213 201 255 258 251 248 249 245 237 180 223 233 267 228 164 203 247 130 187 232 192 258 179 204 356 303 264 293 6 36 29 98 107 129
331 331 334 330 327 329 330 329 326 329 324 328 331 331 335 326 325 315 234 184 207 197 232 260 264 252 245 244 230 231 242 283 257 220 199 196 220 183 220 222 189 200 133 187 260 261 271 236 233 119 115 117 117 130
334 336 335 336 332 331 331 328 329 325 324 327 325 329 332 325 314 281 204 197 212 239 322 321 299 265 249 230 238 237 241 253 257 211 180 219 180 153 205 50 248 186 188 169 220 220 156 176 179 157 142 134 132 137
335 338 336 337 338 336 333 330 324 323 325 323 321 303 309 320 299 174 201 222 208 222 306 301 316 256 247 224 228 235 231 249 218 264 171 243 216 140 203 240 253 220 214 219 224 153 192 151 157 158 146 140 139 140
336 340 343 342 339 337 332 327 328 327 325 314 309 302 298 300 258 218 193 151 193 196 244 307 314 239 226 151 210 253 237 270 241 231 200 236 247 196 209 243 276 302 225 207 178 133 110 146 154 156 151 144 142 137
338 343 346 345 341 338 336 332 335 327 319 316 310 294 286 242 221 230 211 189 169 171 219 158 273 288 190 172 213 189 291 297 298 346 17 49 282 141 252 236 233 215 164 157 166 190 179 159 154 154 152 147 142 139
335 341 346 345 342 341 339 335 331 334 327 324 313 244 131 172 195 194 201 162 171 201 187 144 151 237 187 123 123 183 213 243 297 237 146 186 199 228 228 217 195 186 169 166 147 139 150 155 153 154 154 153 146 144
332 337 341 343 345 343 338 333 339 337 342 348 109 83 164 145 155 151 153 167 185 218 217 192 148 169 178 153 25 85 7 27 272 291 317 212 255 254 245 234 229 191 187 165 136 133 152 154 159 159 159 157 152 150
330 335 337 340 342 345 341 340 341 341 356 4 1 346 296 173 150 166 183 180 144 287 201 190 172 142 196 162 162 162 163 340 281 258 248 251 263 245 226 214 204 193 188 179 191 190 176 172 165 162 160 158 155 155
330 335 337 337 337 343 344 342 343 339 333 311 309 309 189 141 135 126 226 130 190 210 193 162 166 145 150 168 114 140 121 86 260 332 291 261 253 205 162 188 196 187 186 185 177 179 175 174 167 162 158 157 158 157
329 335 336 336 337 341 343 340 338 328 325 322 170 289 302 225 204 193 187 196 179 179 182 157 125 141 123 124 73 82 189 237 5 11 238 234 283 215 191 185 181 180 183 183 171 172 170 166 163 163 158 159 158 157
328 334 335 334 339 341 341 340 337 332 338 306 241 251 202 212 251 224 280 161 204 163 153 147 113 125 132 84 131 146 23 20 349 273 237 252 226 187 187 182 173 168 174 175 168 164 161 160 160 162 161 160 159 154
327 334 332 338 337 339 340 340 337 342 232 269 227 249 242 324 307 329 325 317 316 166 158 123 82 107 101 106 102 104 73 252 219 236 234 252 183 170 165 165 169 165 166 164 162 161 160 161 161 158 158 156 156 152
327 334 332 334 336 339 338 337 344 353 270 254 242 283 285 284 303 338 291 263 238 174 169 145 121 131 184 138 111 211 149 225 243 219 236 182 168 166 162 164 167 166 163 161 161 162 161 159 157 151 149 153 154 153
327 330 330 333 336 339 338 346 22 192 266 274 278 304 298 279 271 286 284 246 203 196 214 135 166 198 87 71 242 195 208 228 253 226 175 174 176 167 163 163 165 165 164 163 161 160 156 153 152 150 149 149 151 150
319 328 330 333 335 338 344 5 1 338 272 259 318 303 309 284 272 272 264 242 230 217 180 225 131 146 187 175 239 234 227 238 166 160 164 166 170 167 169 165 167 167 164 162 158 155 155 156 156 153 152 151 152 151
321 324 328 330 334 331 359 343 347 321 272 295 284 307 296 288 283 273 275 252 240 227 243 181 141 192 213 213 214 206 199 177 164 155 161 164 169 168 168 168 166 165 161 159 158 158 158 160 159 157 156 156 158 158
313 317 323 329 333 307 314 274 311 287 272 310 297 302 310 277 283 291 281 249 223 205 212 226 217 265 280 276 221 212 234 188 171 153 158 165 171 173 172 169 165 162 161 161 159 159 157 156 157 158 157 158 160 157
321 322 327 330 307 273 277 300 285 303 300 297 304 325 296 294 276 269 262 227 205 210 222 316 322 313 287 280 275 267 224 199 190 190 176 167 172 176 172 171 168 165 163 161 160 159 161 160 157 160 159 158 158 154
311 321 321 316 270 267 266 262 301 299 283 285 311 319 278 300 324 359 320 226 47 20 357 344 326 321 309 299 286 242 201 191 194 202 188 177 168 174 174 172 169 166 165 165 166 163 163 164 161 159 160 160 162 161
316 315 294 264 261 239 207 320 304 289 5 293 331 344 298 307 323 333 59 48 56 1 347 330 306 297 289 257 207 186 185 199 193 193 182 179 177 177 174 173 174 170 167 167 168 166 164 163 163 164 166 164 164 164
308 260 247 254 250 247 314 4 344 332 310 355 17 306 313 297 327 20 352 26 352 355 358 352 334 306 255 219 200 197 194 197 199 189 185 181 177 177 177 174 174 175 172 165 168 169 169 165 166 168 168 167 166 168
278 260 218 291 269 34 29 359 351 37 293 291 355 307 311 318 302 332 322 344 342 350 353 350 345 3 332 243 216 206 201 203 204 190 183 188 181 172 169 169 171 172 174 173 169 171 170 167 165 168 167 169 169 169
214 209 145 197 256 140 189 117 222 223 225 311 260 301 316 327 300 278 7 330 330 336 336 342 342 325 299 281 243 219 206 203 209 200 189 187 185 177 169 167 164 168 178 179 174 171 169 168 168 168 167 167 168 171
236 263 202 198 170 151 72 66 89 119 216 224 280 336 5 311 279 329 313 324 328 326 323 317 308 295 286 271 243 226 213 209 204 202 189 181 181 178 172 166 171 174 170 172 175 176 173 171 170 170 169 165 167 171
224 186 178 174 164 174 143 104 167 207 227 208 299 293 197 223 264 311 316 320 322 321 318 311 300 289 266 238 229 217 205 203 196 184 171 166 164 167 172 176 177 164 159 164 171 173 176 172 169 167 169 173 175 178
208 187 165 90 122 185 208 191 212 182 186 187 160 246 255 248 286 311 321 325 331 330 330 330 318 292 245 212 202 190 180 176 171 165 162 153 154 151 161 161 158 164 161 159 158 162 163 164 164 166 170 175 178 181
197 179 143 140 153 217 197 185 186 178 192 214 242 267 267 275 302 320 333 336 333 337 343 337 312 247 186 181 169 163 163 165 168 167 156 148 145 148 154 161 163 159 160 162 159 159 164 168 169 172 175 176 178 185
162 175 116 160 209 183 182 182 182 195 225 244 246 247 269 291 292 320 345 352 360 9 13 8 29 137 166 163 163 162 161 165 166 160 157 157 159 156 156 156 158 164 166 166 165 163 163 166 171 174 175 179 185 198
159 171 141 143 249 173 166 183 190 224 232 227 238 235 255 270 279 299 351 26 44 72 86 93 114 128 136 140 146 150 155 157 162 163 162 157 150 148 149 152 154 153 152 153 155 159 163 168 171 175 182 187 200 228
124 134 106 116 128 190 181 179 190 297 245 246 236 237 229 247 255 222 168 127 121 111 103 103 107 115 120 125 129 129 124 124 127 135 140 141 144 145 147 148 148 151 153 155 156 161 163 168 174 180 191 204 226 258